Marietta, GA

12:19 PM EDT on March 28, 2017 (GMT -0400)
Dobbins Air Force Base

Weather History for KMGE - December, 2013

Change the Weather History Date:

Sunday, December 8, 2013

  Actual Average Record
Temperature  
Mean Temperature 44 °F -  
Max Temperature 48 °F 53 °F 71 °F (1998)
Min Temperature 41 °F 36 °F 17 °F (2006)
Degree Days  
Heating Degree Days 20    
Moisture  
Dew Point 45 °F    
Average Humidity 100    
Maximum Humidity 100    
Minimum Humidity 93    
Precipitation  
Precipitation 0.18 in - - ()
Sea Level Pressure  
Sea Level Pressure 30.24 in    
Wind  
Wind Speed 7 mph (East)    
Max Wind Speed 16 mph    
Max Gust Speed 21 mph    
Visibility 4 miles    
Events Rain    
Averages and records for this station are not official NWS values.
T = Trace of Precipitation, MM = Missing Value Source: NWS Daily Summary

Daily Weather History Graph

Daily Weather History Graph

Search for Another Location

Airport or City:

Trip Planner

Search our weather history database for the weather conditions in past years. The results will help you decide how hot, cold, wet, or windy it might be!

Date:

Astronomy

Dec. 08, 2013 Rise Set
Actual Time 7:31 AM EST 5:29 PM EST
Civil Twilight 7:03 AM EST 5:56 PM EST
Nautical Twilight 6:32 AM EST 6:27 PM EST
Astronomical Twilight 6:02 AM EST 6:58 PM EST
Moon 12:03 PM EST (12/8) No Moon Set
Length of Visible Light 10h 53m
Length of Day
9h 58m
Waxing Crescent, 40% of the Moon is Illuminated
Dec 8
Waxing Crescent
Dec 9
First Quarter
Dec 17
Full
Dec 25
Last Quarter
Jan 1
New

Hourly Weather History & Observations

Time (EST) Temp. Windchill Dew Point Humidity Pressure Visibility Wind Dir Wind Speed Gust Speed Precip Events Conditions
12:00 AM 42.8 °F - 42.8 °F 100% 30.27 in 2.0 mi NNE 1.2 mph - N/A   Overcast
12:25 AM 42.8 °F - 42.8 °F 100% 30.27 in 2.5 mi Calm Calm - N/A   Overcast
12:40 AM 44.6 °F - 44.6 °F 100% 30.27 in 3.0 mi NNW 1.2 mph - N/A   Overcast
12:45 AM 44.6 °F - 44.6 °F 100% 30.27 in 3.0 mi Calm Calm - N/A   Overcast
12:51 AM 44.6 °F - 44.6 °F 100% 30.27 in 3.0 mi Calm Calm - N/A   Overcast
12:58 AM 44.2 °F - 44.2 °F 100% 30.29 in 3.0 mi Calm Calm - 0.00 in   Overcast
1:03 AM 44.6 °F - 44.6 °F 100% 30.26 in 3.0 mi East 2.3 mph - N/A   Overcast
1:08 AM 44.6 °F - 44.6 °F 100% 30.26 in 2.5 mi ENE 2.3 mph - N/A   Light Drizzle
1:23 AM 44.6 °F 41.4 °F 44.6 °F 100% 30.24 in 2.0 mi East 5.8 mph - N/A   Light Drizzle
1:33 AM 46.4 °F 42.9 °F 46.4 °F 100% 30.24 in 2.5 mi East 6.9 mph - N/A   Light Drizzle
1:38 AM 46.4 °F 41.5 °F 46.4 °F 100% 30.25 in 3.0 mi East 10.4 mph - N/A   Light Drizzle
1:43 AM 48.2 °F - 48.2 °F 100% 30.25 in 4.0 mi East 8.1 mph - N/A   Light Drizzle
1:48 AM 48.2 °F - 48.2 °F 100% 30.25 in 5.0 mi East 6.9 mph - N/A   Light Drizzle
1:58 AM 48.4 °F - 48.4 °F 100% 30.25 in 3.0 mi East 10.4 mph - 0.01 in   Light Drizzle
2:06 AM 48.2 °F - 48.2 °F 100% 30.25 in 4.0 mi East 11.5 mph - N/A   Overcast
2:26 AM 48.2 °F - 48.2 °F 100% 30.24 in 6.0 mi East 10.4 mph - N/A   Overcast
2:41 AM 48.2 °F - 48.2 °F 100% 30.24 in 8.0 mi East 9.2 mph - N/A   Overcast
2:51 AM 48.2 °F - 48.2 °F 100% 30.25 in 10.0 mi East 10.4 mph - N/A   Overcast
2:58 AM 47.7 °F - 47.7 °F 100% 30.27 in 10.0 mi East 9.2 mph - 0.01 in   Overcast
3:03 AM 48.2 °F - 48.2 °F 100% 30.25 in 8.0 mi East 10.4 mph - N/A   Overcast
3:08 AM 48.2 °F - 48.2 °F 100% 30.25 in 6.0 mi East 10.4 mph - N/A   Overcast
3:18 AM 48.2 °F - 48.2 °F 100% 30.25 in 4.0 mi ENE 9.2 mph - N/A   Overcast
3:33 AM 48.2 °F - 48.2 °F 100% 30.25 in 5.0 mi East 9.2 mph - N/A   Overcast
3:37 AM 46.4 °F 41.5 °F 46.4 °F 100% 30.24 in 4.0 mi East 10.4 mph - N/A   Light Drizzle
3:47 AM 46.4 °F 41.1 °F 46.4 °F 100% 30.24 in 3.0 mi East 11.5 mph - N/A   Overcast
3:58 AM 46.8 °F - 46.8 °F 100% 30.25 in 4.0 mi East 11.5 mph - 0.00 in   Overcast
4:18 AM 46.4 °F 41.1 °F 46.4 °F 100% 30.23 in 4.0 mi East 11.5 mph - N/A   Overcast
4:28 AM 46.4 °F 40.4 °F 46.4 °F 100% 30.23 in 6.0 mi East 13.8 mph - N/A   Overcast
4:33 AM 46.4 °F 41.1 °F 46.4 °F 100% 30.23 in 6.0 mi East 11.5 mph - N/A   Overcast
4:53 AM 46.4 °F 41.5 °F 46.4 °F 100% 30.24 in 5.0 mi East 10.4 mph - N/A   Overcast
4:58 AM 46.6 °F - 46.6 °F 100% 30.26 in 4.0 mi East 11.5 mph - 0.01 in   Overcast
5:23 AM 46.4 °F 41.5 °F 46.4 °F 100% 30.24 in 4.0 mi East 10.4 mph - N/A   Overcast
5:33 AM 46.4 °F 40.7 °F 46.4 °F 100% 30.24 in 4.0 mi East 12.7 mph - N/A   Overcast
5:48 AM 46.4 °F 41.5 °F 46.4 °F 100% 30.24 in 4.0 mi East 10.4 mph - N/A   Overcast
5:53 AM 46.4 °F 41.5 °F 46.4 °F 100% 30.24 in 6.0 mi East 10.4 mph - N/A   Overcast
5:58 AM 46.4 °F 40.7 °F 46.4 °F 100% 30.26 in 8.0 mi East 12.7 mph - N/A   Overcast
6:03 AM 46.4 °F 40.7 °F 46.4 °F 100% 30.24 in 10.0 mi East 12.7 mph 20.7 mph N/A   Overcast
6:08 AM 46.4 °F 41.9 °F 46.4 °F 100% 30.25 in 10.0 mi ESE 9.2 mph 20.7 mph N/A   Overcast
6:33 AM 46.4 °F 40.1 °F 46.4 °F 100% 30.25 in 10.0 mi East 15.0 mph - N/A   Overcast
6:43 AM 46.4 °F 41.5 °F 46.4 °F 100% 30.26 in 9.0 mi East 10.4 mph - N/A   Overcast
6:45 AM 46.4 °F 40.7 °F 46.4 °F 100% 30.26 in 2.5 mi East 12.7 mph - N/A   Light Drizzle
6:58 AM 46.0 °F 41.0 °F 45.9 °F 99% 30.28 in 2.5 mi East 10.4 mph - N/A   Light Drizzle
7:23 AM 46.4 °F 40.7 °F 46.4 °F 100% 30.25 in 1.2 mi East 12.7 mph - N/A   Light Drizzle
7:58 AM 46.4 °F 41.1 °F 44.6 °F 93% 30.28 in 3.0 mi ESE 11.5 mph - 0.10 in Rain Light Rain
8:58 AM 45.5 °F 39.6 °F 45.3 °F 99% 30.27 in 5.0 mi East 12.7 mph 19.6 mph 0.02 in   Light Drizzle
9:30 AM 44.6 °F 38.8 °F 44.6 °F 100% 30.27 in 1.5 mi East 11.5 mph - N/A   Light Drizzle
9:47 AM 44.6 °F 38.8 °F 44.6 °F 100% 30.28 in 1.5 mi East 11.5 mph - N/A   Overcast
9:58 AM 45.1 °F 38.8 °F 45.0 °F 99% 30.29 in 1.5 mi ESE 13.8 mph - 0.00 in   Overcast
10:07 AM 44.6 °F 39.7 °F 44.6 °F 100% 30.27 in 1.0 mi East 9.2 mph - N/A   Light Drizzle
10:18 AM 44.6 °F 38.8 °F 44.6 °F 100% 30.28 in 1.5 mi East 11.5 mph - N/A   Light Drizzle
10:22 AM 44.6 °F 38.8 °F 44.6 °F 100% 30.28 in 1.2 mi East 11.5 mph - N/A   Light Drizzle
10:31 AM 46.4 °F 39.8 °F 44.6 °F 93% 30.28 in 1.2 mi East 16.1 mph - N/A   Light Drizzle
10:58 AM 45.5 °F 40.3 °F 45.3 °F 99% 30.30 in 1.2 mi East 10.4 mph - 0.00 in   Light Drizzle
11:58 AM 45.1 °F 39.5 °F 45.0 °F 99% 30.26 in 1.2 mi East 11.5 mph 19.6 mph 0.01 in   Light Drizzle
12:16 PM 44.6 °F 38.8 °F 44.6 °F 100% 30.22 in 3.0 mi East 11.5 mph - N/A   Light Drizzle
12:48 PM 44.6 °F 38.1 °F 44.6 °F 100% 30.21 in 2.0 mi East 13.8 mph 19.6 mph N/A   Light Drizzle
12:58 PM 45.3 °F 38.7 °F 45.1 °F 99% 30.22 in 2.0 mi East 15.0 mph 19.6 mph N/A   Light Drizzle
1:29 PM 44.6 °F 38.4 °F 44.6 °F 100% 30.19 in 2.0 mi East 12.7 mph 18.4 mph N/A   Light Drizzle
1:58 PM 45.1 °F 39.9 °F 45.0 °F 99% 30.19 in 2.0 mi East 10.4 mph - 0.00 in   Light Drizzle
2:09 PM 44.6 °F 40.2 °F 44.6 °F 100% 30.18 in 1.2 mi East 8.1 mph - N/A Rain Light Rain
2:45 PM 44.6 °F 39.7 °F 44.6 °F 100% 30.18 in 2.0 mi East 9.2 mph - N/A   Light Drizzle
2:58 PM 44.8 °F 39.9 °F 44.6 °F 99% 30.19 in 2.0 mi East 9.2 mph - 0.02 in   Light Drizzle
3:15 PM 44.6 °F 39.7 °F 44.6 °F 100% 30.18 in 2.0 mi East 9.2 mph 17.3 mph N/A   Overcast
3:25 PM 44.6 °F 39.2 °F 44.6 °F 100% 30.18 in 4.0 mi East 10.4 mph - N/A   Overcast
3:58 PM 44.4 °F 38.2 °F 44.2 °F 99% 30.19 in 3.0 mi East 12.7 mph - N/A   Overcast
4:13 PM 44.6 °F 38.4 °F 44.6 °F 100% 30.18 in 2.0 mi East 12.7 mph - N/A   Overcast
4:50 PM 44.6 °F 38.8 °F 44.6 °F 100% 30.19 in 1.5 mi East 11.5 mph - N/A   Overcast
4:58 PM 43.9 °F 38.3 °F 43.7 °F 99% 30.20 in 1.5 mi East 10.4 mph - N/A   Overcast
5:39 PM 42.8 °F 39.3 °F 42.8 °F 100% 30.19 in 1.5 mi East 5.8 mph - N/A   Overcast
5:58 PM 43.2 °F 37.9 °F 43.0 °F 99% 30.21 in 2.0 mi East 9.2 mph - N/A   Overcast
6:10 PM 42.8 °F 37.0 °F 42.8 °F 100% 30.20 in 1.5 mi East 10.4 mph - N/A   Overcast
6:12 PM 42.8 °F 37.5 °F 42.8 °F 100% 30.20 in 1.5 mi East 9.2 mph - N/A   Light Drizzle
6:50 PM 42.8 °F 38.0 °F 42.8 °F 100% 30.21 in 2.0 mi East 8.1 mph - N/A   Overcast
6:58 PM 42.8 °F 38.0 °F 42.8 °F 100% 30.24 in 2.0 mi East 8.1 mph - 0.00 in   Overcast
7:32 PM 42.8 °F 37.0 °F 42.8 °F 100% 30.22 in 2.0 mi East 10.4 mph - N/A   Overcast
7:58 PM 42.4 °F 36.5 °F 42.3 °F 99% 30.24 in 2.0 mi East 10.4 mph - N/A   Overcast
8:58 PM 42.3 °F 35.9 °F 42.1 °F 99% 30.22 in 2.0 mi East 11.5 mph - N/A   Overcast
9:58 PM 41.7 °F 34.1 °F 41.5 °F 99% 30.21 in 2.0 mi ESE 15.0 mph 20.7 mph N/A   Overcast
10:58 PM 41.2 °F 36.6 °F 41.0 °F 99% 30.23 in 2.0 mi East 6.9 mph - N/A   Overcast
11:55 PM 40.6 °F 33.4 °F 40.5 °F 99% 30.20 in 6.0 mi East 12.7 mph 20.7 mph 0.00 in Rain Light Rain